Погода в Горбунове

Россия / Республика Алтай     50°13′26″N   85°49′51″E
темп.,
°C
ветер,
м/с
пор.,
м/с
влажн.,
%
обл.,
%
осадки,
мм/ч
давл.,
гПа
погр.,
м
28 февраля, вс
вс2801:00−26в018959 0.0 104321
04:00−26всв01860 0.0 104420
07:00−26св118513 0.0 104520
10:00−21всв0187100 0.0 1043104
13:00−16всв0180100 0.0 1038336
16:00−14в0180100 0.0 1035362
19:00−16в0184100 0.0 103422
22:00−16в0183100 0.0 103427
1 марта, пн
пн101:00−16вюв0185100 0.0 103128
04:00−15всв0187100 0.0 102930
07:00−14вюв0188100 0.0 102726
10:00−11св0188100 0.0 102594
13:00−7зюз0183100 0.1 1022389
16:00−6ю1286100 0.1 1021430
19:00−9ююз1193100 0.2 102223
22:00−10з0192100 0.1 102226
2 марта, вт
вт201:00−11сз0092100 0.1 102227
04:00−9юз1196100 0.8 102249
07:00−10з0194100 1.3 102323
10:00−9зсз0191100 0.1 1022105
13:00−5ю0285100 0.1 1020478
16:00−4юз0286100 0.2 1018440
19:00−7зюз1193100 0.5 101828
22:00−8зюз1192100 0.3 101922
3 марта, ср
ср301:00−9зюз0194100 0.6 101721
04:00−9зсз0196100 0.6 101723
07:00−10ююв0195100 1.0 101821
10:00−8з1195100 0.3 1017128
13:00−5зюз3679100 0.8 10171168
16:00−5зюз5107185 0.4 10181687
19:00−11з128363 0.5 102325
22:00−15зюз018561 0.0 102729
4 марта, чт
чт401:00−16всв018581 0.0 102924
04:00−16в0182100 0.0 102922
07:00−15всв0177100 0.0 103021
10:00−12в0174100 0.0 102996
13:00−9в0167100 0.0 1026331
16:00−7ссз016825 0.0 1023414
19:00−12вюв007333 0.0 102521
22:00−14всв0174100 0.0 102621